sat.trackr.live / text

‹ back to catalog

STARLINK-6357

NORAD 56783 · 2023-078S

PAYLOAD ACTIVE UNKNOWN

§ Identity

Operator
Country
US
Launch date
2023-05-31
Launch site
AFWTR
Launch vehicle
Mass (kg)
RCS (m²)

Purposes: comms

External: N2YO · Heavens-Above · Gunter

§ Orbital elements

Epoch: 2026-05-25T05:03:33.539040Z

Period
96.11 min
Inclination
69.9986°
Eccentricity
0.0003782
Mean motion
14.98330495 rev/d
Perigee alt
569.4 km
Apogee alt
574.7 km
Semi-major
6,950.2 km
B*
-8.2185e-6
RAAN
131.6002°
Arg perigee
263.7240°
Mean anomaly
96.3489°
Rev number
16,463

§ Raw data

STARLINK-63571 56783U 23078S   26145.21080485 -.00000191  00000+0 -82185-5 0  99962 56783  69.9986 131.6002 0003782 263.7240  96.3489 14.98330495164630

JSON: /api/v1/satellites/56783 · /tle

For live sub-satellite position, see the globe view (requires WebGL).

§ Visibility from observer

Set your observer location to see the next 7 days of passes ≥ 10°. The values pass through the URL so the page stays shareable.

No JS? Fill the form by hand. The geolocation button needs JavaScript.